Home   Weather   Tunis   Past weeks

Flag for Tunisia Past Weather in Tunis, Tunisia — Yesterday and Last 2 Weeks

Now
79 °F

Passing clouds.


Feels Like: 80 °F
Forecast: 72 / 102 °F
Wind: 5 mph from Southwest

Location: Tunis-Carthage

Current Time: Jul 28, 2017 at 7:51:23 am

Latest Report: Jul 28, 2017 at 7:30 am


Visibility: N/A

Pressure: 30.01 "Hg

Humidity: 51%

Dew Point: 59 °F

Location of TunisLocation

Past Weather in Tunis — Graph

°F

Tunis Temperature Yesterday

Maximum temperature yesterday: 90 °F (at 12:00 pm)
Minimum temperature yesterday: 73 °F (at 4:00 am)
Average temperature yesterday: 81 °F

High & Low Weather Summary for the Past Weeks

 TemperatureHumidityPressure
High100 °F (Jul 13, 12:00 pm)89% (Jul 23, 6:00 am)30.09 "Hg (Jul 23, 6:00 am)
Low70 °F (Jul 18, 1:00 am)22% (Jul 13, 1:30 pm)29.80 "Hg (Jul 20, 5:00 pm)
Average84 °F54%29.94 "Hg
* Reported Jul 13 6:00 am — Jul 28 6:30 am, Tunis. Weather by CustomWeather, © 2017

Note: Actual official high and low records may vary slightly from our data, if they occured in-between our weather recording intervals... More about our weather records

Advertising

Tunis Weather History for the Previous 24 Hours

Scroll right to see more
 ConditionsComfort  
Time TempWeatherWind HumidityBarometerVisibility
6:30 am
Fri, Jul 28
77 °FPassing clouds.3 mph57%30.01 "HgN/A
6:00 am75 °FPassing clouds.No wind61%30.01 "HgN/A
5:30 am75 °FPassing clouds.6 mph57%29.98 "HgN/A
5:00 am75 °FPassing clouds.7 mph61%29.98 "HgN/A
4:00 am75 °FPassing clouds.6 mph65%29.98 "HgN/A
3:30 am75 °FPassing clouds.6 mph69%29.98 "HgN/A
3:00 am75 °FPassing clouds.5 mph69%29.98 "HgN/A
2:30 am75 °FPassing clouds.6 mph69%29.98 "HgN/A
2:00 am75 °FPassing clouds.7 mph69%29.98 "HgN/A
1:30 am75 °FPassing clouds.7 mph69%29.98 "HgN/A
1:00 am77 °FPassing clouds.8 mph65%29.98 "HgN/A
12:30 am75 °FPassing clouds.6 mph65%29.98 "HgN/A
12:00 am77 °FPassing clouds.10 mph61%29.98 "HgN/A
11:30 pm
Thu, Jul 27
77 °FPassing clouds.10 mph65%30.01 "HgN/A
11:00 pm77 °FPassing clouds.7 mph61%30.01 "HgN/A
10:30 pm77 °FPassing clouds.9 mph61%29.98 "HgN/A
10:00 pm77 °FPassing clouds.8 mph61%29.98 "HgN/A
9:30 pm79 °FPassing clouds.10 mph58%29.98 "HgN/A
9:00 pm79 °FPassing clouds.9 mph54%29.98 "HgN/A
8:30 pm79 °FPassing clouds.12 mph54%29.95 "HgN/A
8:00 pm81 °FPassing clouds.15 mph54%29.95 "HgN/A
7:30 pm81 °FPassing clouds.17 mph48%29.95 "HgN/A
7:00 pm82 °FPassing clouds.17 mph48%29.95 "HgN/A
6:30 pm84 °FPassing clouds.16 mph45%29.95 "HgN/A
6:00 pm86 °FPassing clouds.16 mph43%29.92 "HgN/A
5:30 pm86 °FPassing clouds.17 mph43%29.92 "HgN/A
5:00 pm86 °FPassing clouds.16 mph40%29.95 "HgN/A
4:30 pm88 °FPassing clouds.17 mph38%29.95 "HgN/A
4:00 pm88 °FPassing clouds.18 mph33%29.95 "HgN/A
3:30 pm88 °FPassing clouds.17 mph33%29.95 "HgN/A
2:30 pm88 °FScattered clouds.13 mph33%29.95 "HgN/A
2:00 pm90 °FScattered clouds.15 mph31%29.95 "HgN/A
1:30 pm88 °FScattered clouds.17 mph33%29.95 "HgN/A
1:00 pm88 °FScattered clouds.16 mph33%29.95 "HgN/A
12:30 pm88 °FScattered clouds.17 mph31%29.95 "HgN/A
12:00 pm90 °FScattered clouds.16 mph31%29.95 "HgN/A
11:30 am86 °FScattered clouds.17 mph35%29.95 "HgN/A
11:00 am86 °FScattered clouds.15 mph38%29.95 "HgN/A
10:30 am86 °FScattered clouds.17 mph35%29.95 "HgN/A
10:00 am84 °FScattered clouds.16 mph40%29.95 "HgN/A
9:30 am82 °FScattered clouds.15 mph48%29.95 "HgN/A
9:00 am82 °FScattered clouds.13 mph48%29.95 "HgN/A
8:30 am81 °FScattered clouds.14 mph54%29.95 "HgN/A
8:00 am79 °FPassing clouds.12 mph61%29.95 "HgN/A
7:30 am79 °FPassing clouds.10 mph61%29.95 "HgN/A
7:00 am77 °FPassing clouds.8 mph65%29.95 "HgN/A
Weather by CustomWeather, © 2017

See weather overviewHow to use our weather pages